When you browse on this site, cookies collect data to enhance your experience and personalize the content and advertising you see.
Visit our Privacy Policy to learn more. By continuing to use the site, you agree to this use of cookies and data.
  • In Hungary
  • List of Countries
  • For 7 days
  • Water Temperature
  • Weather Map
  • News
  • Weather Widgets
  • user-avatar
    Login

    Hourly Weather Tereshiny

    Today, 22 October, Tuesday

    Time Temperature Precipitation Wind Pressure Humidity
    00:00 +10°C° 0 mm 1 mps 751 mmHg 95%
    01:00 +9°C° 0 mm 0 mps 751 mmHg 95%
    02:00 +8°C° 0 mm 0 mps 752 mmHg 95%
    03:00 +8°C° 0 mm 0 mps 752 mmHg 95%
    04:00 +8°C° 0 mm 0 mps 752 mmHg 95%
    05:00 +8°C° 0 mm 0 mps 752 mmHg 95%
    06:00 +10°C° 0 mm 1 mps 752 mmHg 94%
    07:00 +10°C° 0 mm 1 mps 752 mmHg 92%
    08:00 +10°C° 0 mm 1 mps 752 mmHg 91%
    09:00 +12°C° 0 mm 2 mps 752 mmHg 88%
    10:00 +13°C° 0 mm 2 mps 752 mmHg 85%
    11:00 +13°C° 0 mm 3 mps 752 mmHg 82%
    12:00 +13°C° 0 mm 3 mps 751 mmHg 85%
    13:00 +14°C° 0 mm 2 mps 751 mmHg 88%
    14:00 +14°C° 0 mm 2 mps 751 mmHg 91%
    15:00 +13°C° 0 mm 3 mps 750 mmHg 91%
    16:00 +13°C° 0 mm 3 mps 750 mmHg 91%
    17:00 +13°C° 0 mm 4 mps 749 mmHg 91%
    18:00 +13°C° 0 mm 4 mps 749 mmHg 92%
    19:00 +13°C° 0 mm 4 mps 749 mmHg 92%
    20:00 +13°C° 0 mm 4 mps 749 mmHg 93%
    21:00 +12°C° 0 mm 3 mps 749 mmHg 93%
    22:00 +12°C° 0 mm 3 mps 749 mmHg 94%
    23:00 +12°C° 0 mm 3 mps 749 mmHg 95%

    Tomorrow, 23 October, Wednesday

    Time Temperature Precipitation Wind Pressure Humidity
    00:00 +12°C° 0 mm 3 mps 749 mmHg 95%
    01:00 +12°C° 0 mm 2 mps 749 mmHg 96%
    02:00 +12°C° 0 mm 2 mps 749 mmHg 96%
    03:00 +12°C° 0 mm 2 mps 749 mmHg 96%
    04:00 +12°C° 0 mm 2 mps 749 mmHg 96%
    05:00 +12°C° 0 mm 2 mps 749 mmHg 96%
    06:00 +12°C° 0 mm 2 mps 749 mmHg 95%
    07:00 +11°C° 0 mm 3 mps 748 mmHg 94%
    08:00 +11°C° 0 mm 3 mps 748 mmHg 93%
    09:00 +13°C° 0 mm 2 mps 748 mmHg 89%
    10:00 +14°C° 0 mm 2 mps 748 mmHg 85%
    11:00 +15°C° 0 mm 2 mps 748 mmHg 81%
    12:00 +15°C° 0 mm 2 mps 748 mmHg 80%
    13:00 +15°C° 0 mm 2 mps 748 mmHg 80%
    14:00 +13°C° 0 mm 3 mps 748 mmHg 79%
    15:00 +13°C° 0.3 mm 2 mps 748 mmHg 84%
    16:00 +12°C° 0.3 mm 2 mps 748 mmHg 88%
    17:00 +11°C° 0.3 mm 1 mps 748 mmHg 92%
    18:00 +10°C° 0 mm 2 mps 748 mmHg 90%
    19:00 +10°C° 0 mm 2 mps 749 mmHg 88%
    20:00 +10°C° 0 mm 2 mps 749 mmHg 86%
    21:00 +10°C° 0 mm 2 mps 749 mmHg 85%
    22:00 +11°C° 0 mm 1 mps 749 mmHg 84%
    23:00 +11°C° 0 mm 1 mps 749 mmHg 82%

    Day after tomorrow, 24 October, Thursday

    Time Temperature Precipitation Wind Pressure Humidity
    00:00 +10°C° 0 mm 1 mps 750 mmHg 84%
    01:00 +10°C° 0 mm 1 mps 750 mmHg 86%
    02:00 +9°C° 0 mm 1 mps 750 mmHg 89%
    03:00 +9°C° 0 mm 1 mps 750 mmHg 91%
    04:00 +8°C° 0 mm 1 mps 750 mmHg 93%
    05:00 +8°C° 0 mm 1 mps 750 mmHg 95%
    06:00 +8°C° 0 mm 1 mps 750 mmHg 94%
    07:00 +8°C° 0 mm 1 mps 750 mmHg 94%
    08:00 +8°C° 0 mm 1 mps 751 mmHg 94%
    09:00 +9°C° 0 mm 1 mps 751 mmHg 89%
    10:00 +9°C° 0 mm 2 mps 751 mmHg 84%
    11:00 +12°C° 0 mm 2 mps 751 mmHg 80%
    12:00 +12°C° 0 mm 2 mps 751 mmHg 78%
    13:00 +12°C° 0 mm 2 mps 751 mmHg 77%
    14:00 +13°C° 0 mm 2 mps 751 mmHg 75%
    15:00 +12°C° 0 mm 1 mps 751 mmHg 80%
    16:00 +10°C° 0 mm 1 mps 751 mmHg 84%
    17:00 +9°C° 0 mm 1 mps 751 mmHg 89%
    18:00 +9°C° 0 mm 1 mps 751 mmHg 90%
    19:00 +9°C° 0 mm 1 mps 751 mmHg 90%
    20:00 +8°C° 0 mm 1 mps 751 mmHg 91%
    21:00 +8°C° 0 mm 1 mps 751 mmHg 91%
    22:00 +8°C° 0 mm 1 mps 751 mmHg 91%
    23:00 +8°C° 0 mm 1 mps 751 mmHg 92%

    25 October, Friday

    Time Temperature Precipitation Wind Pressure Humidity
    00:00 +7°C° 0 mm 1 mps 751 mmHg 92%
    01:00 +7°C° 0 mm 1 mps 751 mmHg 93%
    02:00 +7°C° 0 mm 1 mps 751 mmHg 93%
    03:00 +6°C° 0 mm 2 mps 751 mmHg 93%
    04:00 +6°C° 0 mm 2 mps 751 mmHg 93%
    05:00 +6°C° 0 mm 2 mps 751 mmHg 93%
    06:00 +6°C° 0 mm 2 mps 751 mmHg 92%
    07:00 +6°C° 0 mm 2 mps 751 mmHg 90%
    08:00 +7°C° 0 mm 3 mps 750 mmHg 89%
    09:00 +8°C° 0 mm 3 mps 750 mmHg 84%
    10:00 +10°C° 0 mm 4 mps 750 mmHg 78%
    11:00 +11°C° 0 mm 4 mps 750 mmHg 73%
    12:00 +12°C° 0 mm 4 mps 750 mmHg 71%
    13:00 +12°C° 0 mm 4 mps 749 mmHg 70%
    14:00 +13°C° 0 mm 5 mps 749 mmHg 68%
    15:00 +12°C° 0 mm 4 mps 748 mmHg 72%
    16:00 +11°C° 0 mm 4 mps 748 mmHg 76%
    17:00 +11°C° 0 mm 4 mps 748 mmHg 80%
    18:00 +10°C° 0 mm 4 mps 748 mmHg 82%
    19:00 +10°C° 0 mm 4 mps 748 mmHg 85%
    20:00 +10°C° 0 mm 4 mps 748 mmHg 87%
    21:00 +10°C° 0 mm 3 mps 747 mmHg 89%
    22:00 +9°C° 0 mm 3 mps 747 mmHg 92%
    23:00 +9°C° 0 mm 3 mps 747 mmHg 94%

    26 October, Saturday

    Time Temperature Precipitation Wind Pressure Humidity
    00:00 +9°C° 0 mm 3 mps 747 mmHg 95%
    01:00 +9°C° 0 mm 2 mps 747 mmHg 96%
    02:00 +9°C° 0 mm 2 mps 747 mmHg 97%
    03:00 +9°C° 0 mm 2 mps 747 mmHg 97%
    04:00 +9°C° 0 mm 2 mps 747 mmHg 97%
    05:00 +9°C° 0 mm 2 mps 748 mmHg 97%
    06:00 +10°C° 0 mm 2 mps 748 mmHg 95%
    07:00 +10°C° 0 mm 2 mps 748 mmHg 94%
    08:00 +10°C° 0 mm 2 mps 748 mmHg 93%
    09:00 +12°C° 0 mm 2 mps 748 mmHg 88%
    10:00 +12°C° 0 mm 2 mps 748 mmHg 84%
    11:00 +12°C° 0 mm 3 mps 748 mmHg 79%
    12:00 +12°C° 0 mm 3 mps 748 mmHg 77%
    13:00 +13°C° 0 mm 3 mps 747 mmHg 75%
    14:00 +13°C° 0 mm 3 mps 747 mmHg 73%
    15:00 +12°C° 0 mm 3 mps 747 mmHg 78%
    16:00 +11°C° 0 mm 3 mps 746 mmHg 83%
    17:00 +10°C° 0 mm 3 mps 746 mmHg 87%
    18:00 +10°C° 0 mm 3 mps 745 mmHg 88%
    19:00 +10°C° 0 mm 3 mps 745 mmHg 89%
    20:00 +10°C° 0 mm 4 mps 745 mmHg 90%
    21:00 +10°C° 0 mm 4 mps 744 mmHg 92%
    22:00 +10°C° 0 mm 3 mps 744 mmHg 93%
    23:00 +10°C° 0 mm 3 mps 744 mmHg 94%

    27 October, Sunday

    Time Temperature Precipitation Wind Pressure Humidity
    00:00 +10°C° 0 mm 3 mps 743 mmHg 95%
    01:00 +10°C° 0 mm 3 mps 743 mmHg 95%
    02:00 +10°C° 0 mm 4 mps 742 mmHg 96%
    03:00 +10°C° 0 mm 3 mps 742 mmHg 96%
    04:00 +10°C° 0 mm 3 mps 741 mmHg 96%
    05:00 +11°C° 0 mm 3 mps 740 mmHg 96%
    06:00 +11°C° 0.1 mm 3 mps 740 mmHg 96%
    07:00 +11°C° 0.1 mm 4 mps 740 mmHg 95%
    08:00 +11°C° 0.1 mm 4 mps 740 mmHg 95%
    09:00 +8°C° 1.3 mm 4 mps 740 mmHg 92%
    10:00 +7°C° 1.3 mm 5 mps 740 mmHg 90%
    11:00 +6°C° 1.3 mm 5 mps 740 mmHg 87%
    12:00 +5°C° 0.7 mm 5 mps 740 mmHg 87%
    13:00 +5°C° 0.7 mm 4 mps 740 mmHg 86%
    14:00 +5°C° 0.7 mm 3 mps 740 mmHg 86%
    15:00 +5°C° 0 mm 3 mps 741 mmHg 85%
    16:00 +5°C° 0 mm 3 mps 741 mmHg 84%
    17:00 +5°C° 0 mm 3 mps 741 mmHg 82%
    18:00 +4°C° 0 mm 4 mps 741 mmHg 83%
    19:00 +4°C° 0 mm 4 mps 741 mmHg 83%
    20:00 +4°C° 0 mm 4 mps 741 mmHg 83%
    21:00 +3°C° 0 mm 5 mps 741 mmHg 82%
    22:00 +3°C° 0 mm 5 mps 740 mmHg 81%
    23:00 +3°C° 0 mm 6 mps 740 mmHg 79%

    28 October, Monday

    Time Temperature Precipitation Wind Pressure Humidity
    00:00 +3°C° 0 mm 6 mps 740 mmHg 79%
    01:00 +4°C° 0 mm 6 mps 739 mmHg 79%
    02:00 +4°C° 0 mm 6 mps 739 mmHg 79%
    03:00 +4°C° 0.1 mm 7 mps 738 mmHg 79%
    04:00 +4°C° 0.1 mm 7 mps 738 mmHg 78%
    05:00 +4°C° 0.1 mm 7 mps 738 mmHg 77%
    06:00 +4°C° 0.1 mm 7 mps 738 mmHg 78%
    07:00 +4°C° 0.1 mm 7 mps 738 mmHg 78%
    08:00 +3°C° 0.1 mm 7 mps 738 mmHg 79%
    09:00 +4°C° 0.1 mm 6 mps 739 mmHg 76%
    10:00 +4°C° 0.1 mm 6 mps 739 mmHg 74%
    11:00 +5°C° 0.1 mm 6 mps 740 mmHg 71%
    12:00 +5°C° 0 mm 6 mps 740 mmHg 70%
    13:00 +6°C° 0 mm 5 mps 740 mmHg 70%
    14:00 +6°C° 0 mm 5 mps 741 mmHg 69%
    15:00 +5°C° 0 mm 4 mps 741 mmHg 74%
    16:00 +4°C° 0 mm 4 mps 741 mmHg 78%
    17:00 +4°C° 0 mm 3 mps 741 mmHg 83%
    18:00 +4°C° 0 mm 3 mps 741 mmHg 85%
    19:00 +3°C° 0 mm 3 mps 741 mmHg 86%
    20:00 +4°C° 0 mm 2 mps 741 mmHg 88%
    21:00 +4°C° 0 mm 2 mps 741 mmHg 88%
    22:00 +3°C° 0 mm 3 mps 740 mmHg 87%
    23:00 +2°C° 0 mm 3 mps 740 mmHg 86%
    Show more